FW9731 Weather Reports


time (UTC)temp
F
wind
direction
speed
knots
gust
knots
rain 1hr
in
rain 24hr
in
rain mn
in
humidity
%
barometer
mb
20260509044906 66 163 0.0 0.0 0.00 0.00 0.00 99 1012.2
20260509044404 66 164 0.0 0.0 0.00 0.00 0.00 99 1012.4
20260509043901 66 159 0.0 0.0 0.00 0.00 0.00 99 1012.2
20260509043356 66 165 0.0 0.0 0.00 0.00 0.00 99 1012.1
20260509042852 66 165 0.0 0.0 0.00 0.00 0.00 99 1012.1
20260509042349 66 165 0.0 0.0 0.00 0.00 0.00 99 1012.1
20260509041846 66 165 0.0 0.0 0.00 0.00 0.00 99 1011.8
20260509041343 67 169 0.0 0.0 0.00 0.00 0.00 99 1012.0
20260509040841 66 165 0.0 0.0 0.00 0.00 0.00 99 1011.8
20260509040338 67 165 0.0 0.0 0.00 0.00 0.00 99 1011.8
20260509035835 67 175 0.0 0.0 0.00 0.00 0.00 99 1011.7
20260509035332 67 169 0.0 0.0 0.00 0.00 0.00 99 1011.7
20260509034828 67 166 0.0 0.0 0.00 0.00 0.00 99 1011.5
20260509034327 67 164 0.0 0.0 0.00 0.00 0.00 99 1011.5
20260509033823 67 164 0.0 0.0 0.00 0.00 0.00 99 1010.9
20260509033320 67 164 0.0 0.0 0.00 0.00 0.00 99 1011.0
20260509032817 68 164 0.0 0.0 0.00 0.00 0.00 99 1011.4
20260509032314 68 163 0.0 0.0 0.00 0.00 0.00 99 1011.2
20260509031812 68 161 0.0 0.0 0.00 0.00 0.00 99 1011.2
20260509031309 68 161 0.0 0.0 0.00 0.00 0.00 99 1011.0
20260509030807 68 159 0.0 0.0 0.00 0.00 0.00 99 1010.9
20260509030304 69 159 0.0 0.0 0.00 0.00 0.00 99 1011.0
20260509025801 69 177 0.0 0.0 0.00 0.00 0.00 99 1011.0
20260509025256 69 187 0.0 0.0 0.00 0.00 0.00 99 1010.8
20260509024752 69 182 0.0 0.0 0.00 0.00 0.00 99 1010.7
20260509024248 69 161 0.0 0.0 0.00 0.00 0.00 99 1010.5
20260509023746 70 160 0.0 0.0 0.00 0.00 0.00 99 1010.6
20260509023243 70 160 0.0 0.0 0.00 0.00 0.00 99 1010.7
20260509022739 70 160 0.0 0.0 0.00 0.00 0.00 99 1010.5
20260509022237 70 160 0.0 0.0 0.00 0.00 0.00 99 1010.7
20260509021733 70 162 0.0 0.0 0.00 0.00 0.00 98 1010.5
20260509021230 70 162 0.0 0.0 0.00 0.00 0.00 98 1010.3
20260509020728 71 162 0.0 0.0 0.00 0.00 0.00 98 1010.2
20260509020225 71 163 0.0 0.0 0.00 0.00 0.00 98 1010.3
20260509015723 71 162 0.0 0.0 0.00 0.00 0.00 97 1010.3
20260509015222 72 163 0.0 0.0 0.00 0.00 0.00 97 1010.2
20260509014718 72 163 0.0 0.0 0.00 0.00 0.00 97 1010.3
20260509014215 72 163 0.0 0.0 0.00 0.00 0.00 97 1010.4
20260509013711 72 162 0.0 0.0 0.00 0.00 0.00 96 1010.5
20260509013207 72 162 0.0 0.0 0.00 0.00 0.00 96 1010.6
20260509012704 72 161 0.0 0.0 0.00 0.00 0.00 96 1010.2
20260509012200 72 160 0.0 0.0 0.00 0.00 0.00 95 1010.1
20260509011658 73 160 0.0 0.0 0.00 0.00 0.00 95 1010.1
20260509011155 73 160 0.0 0.0 0.00 0.00 0.00 95 1010.2
20260509010653 73 159 0.0 0.0 0.00 0.00 0.00 94 1010.3
20260509010149 73 158 0.0 0.0 0.00 0.00 0.00 94 1010.5
20260509005647 73 172 0.0 0.0 0.00 0.00 0.00 94 1010.6
20260509005143 74 157 0.0 0.0 0.00 0.00 0.00 93 1010.4
20260509004639 74 161 0.0 0.0 0.00 0.00 0.00 93 1010.4
20260509004136 74 161 0.0 0.0 0.00 0.00 0.00 93 1010.1
20260509003635 74 161 0.0 0.0 0.00 0.00 0.00 92 1010.2
20260509003132 74 161 0.0 0.0 0.00 0.00 0.00 92 1010.3
20260509002629 74 157 0.0 0.0 0.00 0.00 0.00 92 1010.4
20260509002126 74 162 0.0 0.0 0.00 0.00 0.00 92 1010.5
20260509001624 74 160 0.0 0.0 0.00 0.00 0.00 91 1010.3
20260509001119 74 184 1.7 1.7 0.00 0.00 0.00 91 1010.2
20260509000618 75 171 0.0 0.9 0.00 0.00 0.00 91 1010.4
20260509000114 75 157 0.0 0.0 0.00 0.00 0.00 91 1010.2
20260508235612 75 158 0.0 0.0 0.00 0.00 0.00 90 1010.2
20260508235108 75 161 0.9 0.9 0.00 0.00 0.00 90 1010.2
20260508234606 75 178 0.9 0.9 0.00 0.00 0.00 90 1010.4
20260508234102 75 158 0.0 0.0 0.00 0.00 0.00 90 1010.3
20260508233601 75 175 2.6 2.6 0.00 0.00 0.00 89 1010.7
20260508233058 75 193 0.9 0.9 0.00 0.00 0.00 89 1010.7
20260508232555 75 188 0.9 0.9 0.00 0.00 0.00 89 1010.3
20260508232052 75 193 1.7 1.7 0.00 0.00 0.00 89 1010.3
20260508231550 75 157 0.0 0.0 0.00 0.00 0.00 88 1010.3
20260508231046 76 165 1.7 2.6 0.00 0.00 0.00 87 1010.4
20260508230543 76 156 0.0 0.0 0.00 0.00 0.00 88 1010.7
20260508230040 76 156 0.0 0.0 0.00 0.00 0.00 87 1010.6
20260508225537 76 155 0.0 0.0 0.00 0.00 0.00 88 1010.7
20260508225033 76 169 0.0 0.9 0.00 0.00 0.00 87 1010.7
20260508224532 76 155 0.0 0.0 0.00 0.00 0.00 87 1010.5
20260508224029 77 146 1.7 1.7 0.00 0.00 0.00 86 1010.5
20260508223527 77 158 0.0 0.0 0.00 0.00 0.00 86 1010.6
20260508223023 77 308 0.9 1.7 0.00 0.00 0.00 86 1010.5
20260508222521 76 172 0.9 0.9 0.00 0.00 0.00 87 1010.9
20260508222017 76 148 0.0 0.0 0.00 0.00 0.00 87 1010.6
20260508221514 76 156 0.0 0.0 0.00 0.00 0.00 87 1011.0
20260508221010 76 151 0.0 0.9 0.00 0.00 0.00 86 1011.0
20260508220507 76 158 0.0 0.0 0.00 0.00 0.00 87 1011.0
20260508220002 76 156 0.0 0.0 0.00 0.00 0.00 89 1010.9
20260508215459 75 155 0.0 0.0 0.00 0.00 0.00 88 1011.3
20260508214956 75 160 0.0 0.9 0.00 0.00 0.00 87 1011.7
20260508214454 75 168 0.9 0.9 0.00 0.00 0.00 87 1011.4
20260508213950 75 154 0.0 0.0 0.00 0.00 0.00 88 1011.4
20260508213448 76 127 0.9 0.9 0.00 0.00 0.00 87 1011.2
20260508212942 75 153 0.0 0.0 0.00 0.00 0.00 88 1011.4
20260508212440 75 148 0.0 0.0 0.00 0.00 0.00 88 1011.5
20260508211935 75 149 0.0 0.0 0.00 0.00 0.00 88 1011.7
20260508211431 75 151 0.0 0.0 0.00 0.00 0.00 88 1011.4
20260508210929 74 141 0.0 0.9 0.00 0.00 0.00 88 1012.1
20260508210425 74 165 0.9 0.9 0.00 0.00 0.00 88 1012.2
20260508205922 74 161 0.0 0.0 0.00 0.00 0.00 89 1012.3
20260508205419 74 163 0.0 0.0 0.00 0.00 0.00 88 1012.2
20260508204915 74 161 0.0 0.9 0.00 0.00 0.00 88 1012.2
20260508204413 74 154 0.0 0.9 0.00 0.00 0.00 88 1012.1
20260508203908 74 227 0.0 0.9 0.00 0.00 0.00 88 1012.3
20260508203404 73 153 0.0 0.0 0.00 0.00 0.00 88 1012.5
20260508202900 73 188 0.9 1.7 0.00 0.00 0.00 87 1012.6
20260508202357 73 163 0.9 0.9 0.00 0.00 0.00 87 1012.5
20260508201855 74 164 0.9 0.9 0.00 0.00 0.00 87 1012.4
20260508201351 74 165 0.0 0.9 0.00 0.00 0.00 87 1012.5
20260508200847 74 163 2.6 2.6 0.00 0.00 0.00 85 1012.4
20260508200345 74 154 0.0 0.9 0.00 0.00 0.00 86 1012.6
20260508195840 75 153 0.0 0.0 0.00 0.00 0.00 85 1012.6
20260508195337 74 165 0.0 0.0 0.00 0.00 0.00 85 1012.6
20260508194833 75 143 0.0 0.0 0.00 0.00 0.00 85 1012.6
20260508194331 75 154 0.0 0.0 0.00 0.00 0.00 85 1012.7
20260508193827 74 149 0.0 0.0 0.00 0.00 0.00 85 1012.8
20260508193324 74 146 0.0 0.0 0.00 0.00 0.00 86 1013.0
20260508192820 74 140 0.0 0.9 0.00 0.00 0.00 85 1012.8
20260508192318 74 159 0.0 0.0 0.00 0.00 0.00 86 1012.9
20260508191815 73 148 0.0 0.0 0.00 0.00 0.00 87 1012.9
20260508191312 73 216 1.7 1.7 0.00 0.00 0.00 87 1013.2
20260508190809 72 154 0.0 0.0 0.00 0.00 0.00 89 1013.2
20260508190305 71 154 0.0 0.0 0.00 0.00 0.00 89 1013.5
20260508185802 71 150 0.0 0.0 0.00 0.00 0.00 90 1013.5
20260508185259 71 152 0.0 0.0 0.00 0.00 0.00 90 1013.3
20260508184756 71 153 0.0 0.0 0.00 0.00 0.00 90 1013.2
20260508184254 70 150 0.0 0.0 0.00 0.00 0.00 91 1013.5
20260508183750 70 151 0.0 0.0 0.00 0.00 0.00 91 1013.7
20260508183247 70 153 0.0 0.0 0.00 0.00 0.00 92 1013.6
20260508182743 69 143 0.0 0.0 0.00 0.00 0.00 92 1013.7
20260508182239 69 147 0.0 0.0 0.00 0.00 0.00 92 1013.7
20260508181735 69 152 0.0 0.0 0.00 0.00 0.00 93 1014.0
20260508181232 68 152 0.0 0.0 0.00 0.00 0.00 93 1013.9
20260508180729 68 152 0.0 0.0 0.00 0.00 0.00 93 1013.9
20260508180226 68 142 0.0 0.0 0.00 0.00 0.00 93 1014.0
20260508175722 67 152 0.0 0.0 0.00 0.00 0.00 93 1014.1
20260508175219 67 149 0.0 0.0 0.00 0.00 0.00 94 1014.6
20260508174717 68 150 0.0 0.0 0.00 0.00 0.00 94 1014.4
20260508174214 67 153 0.0 0.0 0.00 0.00 0.00 94 1014.5
20260508173710 67 152 0.0 0.0 0.00 0.00 0.00 93 1014.6
20260508173206 67 153 0.0 0.0 0.00 0.00 0.00 93 1014.7
20260508172704 67 151 0.0 0.0 0.00 0.00 0.00 93 1015.0
20260508172200 67 151 0.0 0.0 0.00 0.00 0.00 93 1015.1
20260508171657 67 153 0.0 0.0 0.00 0.00 0.00 92 1015.1
20260508171153 67 156 0.0 0.0 0.00 0.00 0.00 92 1015.0
20260508170650 67 149 0.0 0.0 0.00 0.00 0.00 92 1015.2
20260508170148 67 153 0.0 0.0 0.00 0.00 0.00 92 1015.0
20260508165645 67 148 0.0 0.0 0.00 0.00 0.00 92 1014.9
20260508165142 67 153 0.0 0.0 0.00 0.00 0.00 91 1015.3
20260508164638 67 152 0.0 0.0 0.00 0.00 0.00 92 1015.5
20260508164135 67 154 0.0 0.0 0.00 0.00 0.00 91 1015.6
20260508163633 67 152 0.0 0.0 0.00 0.00 0.00 92 1015.3
20260508163130 66 152 0.0 0.0 0.00 0.00 0.00 91 1015.4
20260508162626 66 151 0.0 0.0 0.00 0.00 0.00 91 1015.6
20260508162123 67 144 0.0 0.0 0.00 0.00 0.00 91 1015.6
20260508161620 66 150 0.0 0.0 0.00 0.00 0.00 91 1015.2
20260508161118 66 148 0.0 0.0 0.00 0.00 0.00 90 1015.3
20260508160616 66 149 0.0 0.0 0.00 0.00 0.00 90 1015.3
20260508160113 67 150 0.0 0.0 0.00 0.00 0.00 90 1015.3
20260508155610 67 131 0.0 0.0 0.00 0.00 0.00 90 1015.3
20260508155107 66 144 0.0 0.0 0.00 0.00 0.00 90 1015.3
20260508154603 66 151 0.0 0.0 0.00 0.00 0.00 90 1015.6
20260508154100 67 127 0.9 0.9 0.00 0.00 0.00 90 1015.5
20260508153557 67 148 0.0 0.0 0.00 0.00 0.00 90 1015.4
20260508153054 66 152 0.0 0.0 0.00 0.00 0.00 90 1015.5
20260508152551 67 148 0.0 0.0 0.00 0.00 0.00 90 1015.4
20260508152046 66 153 0.0 0.0 0.00 0.00 0.00 90 1015.6
20260508151543 66 148 0.0 0.0 0.00 0.00 0.00 91 1015.5
20260508151040 66 144 0.0 0.0 0.00 0.00 0.00 92 1015.3
20260508150537 65 142 0.0 0.0 0.00 0.00 0.00 92 1015.5
20260508150033 65 153 0.0 0.0 0.00 0.00 0.00 92 1015.7
20260508145530 65 159 0.0 0.0 0.00 0.00 0.00 92 1015.8
20260508145026 65 156 0.0 0.0 0.00 0.00 0.00 92 1015.6
20260508144524 65 156 0.0 0.0 0.00 0.00 0.00 92 1015.7
20260508144021 64 154 0.0 0.0 0.00 0.00 0.00 93 1015.6
20260508143519 64 156 0.0 0.0 0.00 0.00 0.00 93 1015.6
20260508143015 64 156 0.0 0.0 0.00 0.00 0.00 94 1015.6
20260508142512 64 167 0.0 0.0 0.00 0.00 0.00 95 1015.8
20260508142008 64 156 0.0 0.0 0.00 0.00 0.00 96 1015.8
20260508141505 64 156 0.0 0.0 0.00 0.00 0.00 96 1015.8
20260508141003 63 156 0.0 0.0 0.00 0.00 0.00 97 1015.9
20260508140500 63 156 0.0 0.0 0.00 0.00 0.00 97 1015.9
20260508135955 63 156 0.0 0.0 0.00 0.00 0.00 98 1015.9
20260508135452 62 156 0.0 0.0 0.00 0.00 0.00 99 1016.0
20260508134948 63 165 0.0 0.0 0.00 0.00 0.00 99 1015.8
20260508134445 62 159 0.0 0.0 0.00 0.00 0.00 99 1015.7
20260508133941 62 156 0.0 0.0 0.00 0.00 0.00 99 1015.8
20260508133439 61 166 0.0 0.0 0.00 0.00 0.00 99 1016.0
20260508132936 61 161 0.0 0.0 0.00 0.00 0.00 99 1016.2
20260508132434 61 150 0.0 0.0 0.00 0.00 0.00 99 1016.1
20260508131931 60 159 0.0 0.0 0.00 0.00 0.00 99 1016.1
20260508131426 61 158 0.0 0.0 0.00 0.00 0.00 99 1015.9
20260508130923 60 156 0.0 0.0 0.00 0.00 0.00 99 1015.9
20260508130420 60 170 0.0 0.0 0.00 0.00 0.00 99 1015.9
20260508125916 60 164 0.0 0.0 0.00 0.00 0.00 99 1016.1
20260508125412 60 168 0.0 0.0 0.00 0.00 0.00 99 1015.9
20260508124910 59 167 0.0 0.0 0.00 0.00 0.00 99 1015.5
20260508124407 59 162 0.0 0.0 0.00 0.00 0.00 99 1015.5
20260508123905 59 161 0.0 0.0 0.00 0.00 0.00 99 1015.8
20260508123403 59 164 0.0 0.0 0.00 0.00 0.00 99 1016.0
20260508122859 59 160 0.0 0.0 0.00 0.00 0.00 99 1016.0
20260508122356 58 190 0.0 0.0 0.00 0.00 0.00 99 1015.7
20260508121853 58 175 0.0 0.0 0.00 0.00 0.00 99 1015.4
20260508121352 58 173 0.0 0.0 0.00 0.00 0.00 99 1015.7
20260508120849 58 161 0.0 0.0 0.00 0.00 0.00 99 1015.4
20260508120347 58 177 0.0 0.0 0.00 0.00 0.00 99 1015.5
20260508115844 58 192 0.0 0.0 0.00 0.00 0.00 99 1015.6
20260508115341 58 161 0.0 0.0 0.00 0.00 0.00 99 1015.8
20260508114838 58 162 0.0 0.0 0.00 0.00 0.00 99 1015.9
20260508114335 58 161 0.0 0.0 0.00 0.00 0.00 99 1015.7
20260508113832 59 158 0.0 0.0 0.00 0.00 0.00 99 1015.8
20260508113330 59 157 0.0 0.0 0.00 0.00 0.00 99 1015.6
20260508112826 59 161 0.0 0.0 0.00 0.00 0.00 99 1015.7
20260508112323 59 156 0.0 0.0 0.00 0.00 0.00 99 1015.6
20260508111819 59 156 0.0 0.0 0.00 0.00 0.00 99 1015.8
20260508111317 59 161 0.0 0.0 0.00 0.00 0.00 99 1015.8
20260508110814 59 161 0.0 0.0 0.00 0.00 0.00 99 1015.8
20260508110312 59 162 0.0 0.0 0.00 0.00 0.00 99 1015.8
20260508105811 59 161 0.0 0.0 0.00 0.00 0.00 99 1016.1
20260508105308 59 159 0.0 0.0 0.00 0.00 0.00 99 1015.9
20260508104805 59 164 0.0 0.0 0.00 0.00 0.00 99 1016.2
20260508104302 59 173 0.0 0.0 0.00 0.00 0.00 99 1016.1
20260508103759 59 156 0.0 0.0 0.00 0.00 0.00 99 1016.5
20260508103256 59 158 0.0 0.0 0.00 0.00 0.00 99 1016.1
20260508102753 59 152 0.0 0.0 0.00 0.00 0.00 99 1016.4
20260508102251 59 184 0.0 0.0 0.00 0.00 0.00 99 1016.4
20260508101748 59 161 0.0 0.0 0.00 0.00 0.00 99 1016.8
20260508101246 59 161 0.0 0.0 0.00 0.00 0.00 99 1016.9
20260508100743 59 161 0.0 0.0 0.00 0.00 0.00 99 1016.9
20260508100241 59 161 0.0 0.0 0.00 0.00 0.00 99 1017.1
20260508095737 58 187 0.0 0.0 0.00 0.00 0.00 99 1017.1
20260508095235 58 175 0.0 0.0 0.00 0.00 0.00 99 1017.1
20260508094731 58 163 0.0 0.0 0.00 0.00 0.00 99 1017.5
20260508094228 58 160 0.0 0.0 0.00 0.00 0.00 99 1017.0
20260508093726 58 185 0.0 0.0 0.00 0.00 0.00 99 1017.0
20260508093223 58 163 0.0 0.0 0.00 0.00 0.00 99 1017.0
20260508092720 58 176 0.0 0.0 0.00 0.00 0.00 99 1016.8
20260508092218 58 227 0.0 0.0 0.00 0.00 0.00 99 1016.8
20260508091716 57 188 0.0 0.9 0.00 0.00 0.00 99 1016.6
20260508091212 57 202 0.0 0.9 0.00 0.00 0.00 99 1016.5
20260508090710 57 236 0.9 0.9 0.00 0.00 0.00 99 1016.5
20260508090208 56 176 0.0 0.0 0.00 0.00 0.00 99 1016.4
20260508085703 56 164 0.0 0.0 0.00 0.00 0.00 99 1016.2
20260508085201 56 169 0.0 0.0 0.00 0.00 0.00 99 1016.4
20260508084657 55 177 0.0 0.0 0.00 0.00 0.00 99 1016.0
20260508084154 55 164 0.0 0.0 0.00 0.00 0.00 99 1016.1
20260508083652 55 164 0.0 0.0 0.00 0.00 0.00 99 1015.8
20260508083149 55 163 0.0 0.0 0.00 0.00 0.00 99 1015.9
20260508082644 55 163 0.0 0.0 0.00 0.00 0.00 99 1016.0
20260508082142 55 163 0.0 0.0 0.00 0.00 0.00 99 1015.9
20260508081639 55 163 0.0 0.0 0.00 0.00 0.00 99 1016.1
20260508081135 55 163 0.0 0.0 0.00 0.00 0.00 99 1016.1
20260508080633 55 163 0.0 0.0 0.00 0.00 0.00 99 1016.4
20260508080131 56 164 0.0 0.0 0.00 0.00 0.00 99 1016.4
20260508075627 56 165 0.0 0.0 0.00 0.00 0.00 99 1016.4
20260508075124 56 162 0.0 0.0 0.00 0.00 0.00 99 1016.6
20260508074622 56 170 0.0 0.0 0.00 0.00 0.00 99 1016.7
20260508074118 56 164 0.0 0.0 0.00 0.00 0.00 99 1016.7
20260508073616 56 164 0.0 0.0 0.00 0.00 0.00 99 1016.7
20260508073114 56 164 0.0 0.0 0.00 0.00 0.00 99 1016.5
20260508072608 56 164 0.0 0.0 0.00 0.00 0.00 99 1016.6
20260508072106 56 164 0.0 0.0 0.00 0.00 0.00 99 1016.8
20260508071604 56 160 0.0 0.0 0.00 0.00 0.00 99 1016.8
20260508071102 56 167 0.0 0.0 0.00 0.00 0.00 99 1016.7
20260508070559 56 161 0.0 0.0 0.00 0.00 0.00 99 1016.6
20260508070058 56 157 0.0 0.0 0.00 0.00 0.00 99 1016.8
20260508065555 55 159 0.0 0.0 0.00 0.00 0.00 99 1016.7
20260508065053 56 164 0.0 0.0 0.00 0.00 0.00 99 1017.0
20260508064550 56 175 0.0 0.0 0.00 0.00 0.00 99 1017.1
20260508064048 56 165 0.0 0.0 0.00 0.00 0.00 99 1016.8
20260508063545 56 162 0.0 0.0 0.00 0.00 0.00 99 1016.9
20260508063043 56 163 0.0 0.0 0.00 0.00 0.00 99 1017.0
20260508062540 56 164 0.0 0.0 0.00 0.00 0.00 99 1017.1
20260508062036 56 174 0.0 0.0 0.00 0.00 0.00 99 1016.9
20260508061534 56 164 0.0 0.0 0.00 0.00 0.00 99 1016.7
20260508061031 56 164 0.0 0.0 0.00 0.00 0.00 99 1017.1
20260508060528 56 164 0.0 0.0 0.00 0.00 0.00 99 1016.6
20260508060026 56 171 0.0 0.0 0.00 0.00 0.00 99 1016.5
20260508055521 56 164 0.0 0.0 0.00 0.00 0.00 99 1016.9
20260508055018 56 162 0.0 0.0 0.00 0.00 0.00 99 1016.7
20260508054514 57 163 0.0 0.0 0.00 0.00 0.00 99 1016.8
20260508054012 57 164 0.0 0.0 0.00 0.00 0.00 99 1017.1
20260508053508 57 164 0.0 0.0 0.00 0.00 0.00 99 1017.3
20260508053007 57 163 0.0 0.0 0.00 0.00 0.00 99 1017.0
20260508052504 57 173 0.0 0.0 0.00 0.00 0.00 99 1017.2
20260508052000 57 164 0.0 0.0 0.00 0.00 0.00 99 1017.5
20260508051456 57 165 0.0 0.0 0.00 0.00 0.00 99 1017.1
20260508050951 57 164 0.0 0.0 0.00 0.00 0.00 99 1017.4
20260508050448 57 173 0.0 0.0 0.00 0.00 0.00 99 1017.6
20260508045945 57 164 0.0 0.0 0.00 0.00 0.00 99 1017.4
20260508045442 57 170 0.0 0.0 0.00 0.00 0.00 99 1017.5